Starlink 35903

operational
NORAD ID: 67168 Int'l Des: 2025-303 Owner: SPXS Country: US Constellation: starlink
LEOCIRCULAR

About Starlink 35903

Description loading...

Live Position

Loading 3D Globe...

Upcoming Passes

Altitude History

Altitude vs Time

uPlot chart will show altitude changes over time

Two-Line Element Set

1 67168C 25303F 26011.77201389 .00053900 00000+0 12884-2 0 114
2 67168 42.9995 276.2759 0001384 295.4187 36.2586 15.40589231 17
Epoch: Jan 11, 2026 • Age: 90 hours

Current Status

Altitude 454.3 km
Velocity 7.64 km/s
Sub-Earth Point -39.25°S, 175.4°E
Launch Date Dec 17, 2025
Age 28 days
Type internet

Technical Details

Classification Payload
Mass 575.00 kg
Dry Mass 530.00 kg
Total Mass 575.00 kg
Length 0.30 m
Diameter 4.10 m
Span 29.00 m
Shape Box + pan
Manufacturer SPXS
Bus Type Starlink V2MO
Phase Status In Orbit
Owner/State SPXS/US

Large Constellations

Loading constellations...